Home > Weather > Surgut > Past weeks

Flag for Russia Past Weather in Surgut, Russia — Yesterday and Last 2 Weeks

Now
73 °F

Clear.


Feels Like: 76 °F
Forecast: 47 / 62 °F
Wind: 13 mph from South

Location: Surgut Airport

Current Time: Aug 26, 2016 at 10:23:00 AM

Latest Report: Aug 26, 2016 at 9:30 AM


Visibility: 4 mi

Pressure: 29.71 "Hg

Humidity: 69%

Dew Point: 63 °F

Location of SurgutLocation

Past Weather in Surgut — Graph

°F

Surgut Temperature Yesterday

Maximum temperature yesterday: 81 °F (at 2:00 PM)
Minimum temperature yesterday: 61 °F (at 4:00 AM)
Average temperature yesterday: 71 °F

High & Low Weather Summary for the Past Weeks

 TemperatureHumidityPressure
High86 °F (Aug 14, 4:00 PM)100% (Aug 12, 1:00 AM)30.39 "Hg (Aug 12, 1:00 AM)
Low48 °F (Aug 24, 3:00 AM)42% (Aug 18, 1:00 PM)29.74 "Hg (Aug 26, 8:00 AM)
Average68 °F73%30.16 "Hg
* Reported Aug 11 9:00 AM — Aug 26 9:00 AM, Surgut, Weather by CustomWeather, © 2016

Note: Actual official high and low records may vary slightly from our data, if they occured in-between our weather recording intervals... More about our weather records

Advertising

Surgut Weather History for the Previous 24 Hours

Scroll right to see more
 ConditionsComfort  
Time TempWeatherWind HumidityBarometerVisibility
9:00 AM
Fri, Aug 26
72 °FClear.10 mph73%29.74 "Hg4 mi
8:30 AM70 °FClear.8 mph83%29.74 "Hg4 mi
8:00 AM68 °FClear.6 mph94%29.74 "Hg4 mi
7:30 AM66 °FClear.3 mph94%29.77 "Hg4 mi
7:00 AM64 °FScattered clouds.1 mph100%29.77 "Hg4 mi
6:30 AM64 °FScattered clouds.3 mph100%29.77 "Hg4 mi
6:00 AM63 °FScattered clouds.3 mph100%29.80 "Hg4 mi
5:30 AM61 °FScattered clouds.6 mph100%29.80 "Hg4 mi
5:00 AM63 °FClear.3 mph100%29.80 "Hg4 mi
4:30 AM63 °FClear.6 mph100%29.80 "Hg4 mi
4:00 AM63 °FClear.3 mph100%29.77 "Hg4 mi
3:30 AM63 °FClear.3 mph100%29.80 "Hg4 mi
3:00 AM63 °FClear.3 mph100%29.80 "Hg4 mi
2:30 AM64 °FClear.3 mph100%29.80 "Hg4 mi
2:00 AM63 °FClear.6 mph100%29.80 "Hg4 mi
1:30 AM63 °FClear.6 mph100%29.80 "Hg4 mi
1:00 AM64 °FClear.8 mph100%29.80 "Hg4 mi
12:30 AM64 °FClear.8 mph100%29.80 "Hg4 mi
12:00 AM66 °FClear.8 mph100%29.80 "Hg4 mi
11:30 PM
Thu, Aug 25
66 °FClear.8 mph100%29.80 "Hg4 mi
11:00 PM66 °FPassing clouds.8 mph100%29.80 "Hg4 mi
10:30 PM66 °FPassing clouds.8 mph100%29.80 "Hg4 mi
10:00 PM68 °FPassing clouds.8 mph100%29.80 "Hg4 mi
9:30 PM68 °FPassing clouds.6 mph100%29.80 "Hg4 mi
9:00 PM68 °FPassing clouds.6 mph100%29.80 "Hg4 mi
8:30 PM68 °FPassing clouds.3 mph100%29.80 "Hg4 mi
8:00 PM70 °FSprinkles. Passing clouds.10 mph94%29.80 "Hg4 mi
7:30 PM73 °FPassing clouds.6 mph74%29.77 "Hg4 mi
7:00 PM75 °FClear.8 mph65%29.77 "Hg4 mi
6:30 PM77 °FClear.13 mph61%29.77 "Hg4 mi
6:00 PM77 °FClear.13 mph61%29.77 "Hg4 mi
5:30 PM77 °FClear.20 mph61%29.80 "Hg4 mi
5:00 PM77 °FPassing clouds.10 mph61%29.80 "Hg4 mi
4:30 PM79 °FScattered clouds.13 mph58%29.80 "Hg4 mi
4:00 PM79 °FScattered clouds.17 mph54%29.80 "Hg4 mi
3:30 PM79 °FScattered clouds.17 mph54%29.80 "Hg4 mi
3:00 PM79 °FScattered clouds.13 mph54%29.80 "Hg4 mi
2:30 PM81 °FScattered clouds.17 mph51%29.80 "Hg4 mi
2:00 PM81 °FScattered clouds.20 mph51%29.80 "Hg4 mi
1:30 PM79 °FScattered clouds.20 mph54%29.80 "Hg4 mi
1:00 PM79 °FPartly sunny.22 mph58%29.80 "Hg4 mi
12:30 PM79 °FScattered clouds.17 mph58%29.80 "Hg4 mi
12:00 PM77 °FScattered clouds.20 mph61%29.80 "Hg4 mi
11:30 AM77 °FClear.15 mph61%29.80 "Hg4 mi
11:00 AM77 °FClear.13 mph61%29.83 "Hg4 mi
10:30 AM75 °FClear.13 mph65%29.83 "Hg4 mi
10:00 AM73 °FClear.13 mph69%29.83 "Hg4 mi
Weather by CustomWeather, © 2016

See weather overviewHow to use our weather pages